Weather History for LTCA - October, 2013

Change the Weather History Date:

Thursday, October 17, 2013

  Actual Average Record
Temperature  
Mean Temperature 57 °F -  
Max Temperature 77 °F 69 °F 82 °F (2012)
Min Temperature 37 °F 49 °F 37 °F (2013)
Degree Days  
Heating Degree Days 8    
Growing Degree Days 7 (Base 50)    
Moisture  
Dew Point 29 °F    
Average Humidity 36    
Maximum Humidity 61    
Minimum Humidity 7    
Precipitation  
Precipitation 0.00 in - - ()
Sea Level Pressure  
Sea Level Pressure 30.00 in    
Wind  
Wind Speed 5 mph ()    
Max Wind Speed 15 mph    
Max Gust Speed -    
Visibility 8.1 miles    
Events      
Averages and records for this station are not official NWS values.
T = Trace of Precipitation, MM = Missing Value Source: Averaged Metar Reports

Daily Weather History Graph

Daily Weather History Graph

Search for Another Location

Airport or City:

Trip Planner

Search our weather history database for the weather conditions in past years. The results will help you decide how hot, cold, wet, or windy it might be!

Date:

Astronomy

Oct. 17, 2013 Rise Set
Actual Time 6:33 AM EEST 5:41 PM EEST
Civil Twilight 6:07 AM EEST 6:08 PM EEST
Nautical Twilight 5:36 AM EEST 6:39 PM EEST
Astronomical Twilight 5:05 AM EEST 7:10 PM EEST
Moon 4:43 PM EEST (10/17) 4:44 AM EEST (10/17)
Length of Visible Light 12h 01m
Length of Day
11h 08m
Waxing Gibbous, 97% of the Moon is Illuminated
Oct 17
Waxing Gibbous
Oct 19
Full
Oct 27
Last Quarter
Nov 3
New
Nov 10
First Quarter

Hourly Weather History & Observations

Time (EEST) Temp. Windchill Dew Point Humidity Pressure Visibility Wind Dir Wind Speed Gust Speed Precip Events Conditions
12:50 AM 46.4 °F 43.5 °F 26.6 °F 46% 30.04 in - WSW 5.8 mph - N/A   Clear
1:50 AM 44.6 °F 43.1 °F 28.4 °F 53% 30.04 in - WSW 3.5 mph - N/A   Clear
2:50 AM 42.8 °F 39.3 °F 24.8 °F 49% 30.04 in - WSW 5.8 mph - N/A   Clear
3:00 AM 44 °F - 25 °F 34% 29.94 in 12 mi WSW 5.8 mph - -  
3:50 AM 41.0 °F 38.0 °F 24.8 °F 53% 30.04 in - SW 4.6 mph - N/A   Clear
4:50 AM 39.2 °F 35.0 °F 26.6 °F 61% 30.01 in - WSW 5.8 mph - N/A   Clear
5:50 AM 41.0 °F 37.1 °F 28.4 °F 61% 30.04 in - WSW 5.8 mph - N/A   Clear
6:50 AM 39.2 °F 35.0 °F 26.6 °F 61% 30.04 in - WSW 5.8 mph - N/A   Clear
7:50 AM 46.4 °F 43.5 °F 30.2 °F 53% 30.04 in - WSW 5.8 mph - N/A   Clear
8:50 AM 55.4 °F - 37.4 °F 51% 30.06 in - Variable 2.3 mph - N/A   Clear
9:00 AM 56 °F - 37 °F 38% 30.01 in 12 mi SW 2.3 mph - -  
9:50 AM 60.8 °F - 35.6 °F 39% 30.04 in - Variable 2.3 mph - N/A   Clear
10:50 AM 66.2 °F - 33.8 °F 30% 30.04 in - East 5.8 mph - N/A   Clear
11:50 AM 68.0 °F - 32.0 °F 26% 30.01 in - ENE 8.1 mph - N/A   Clear
12:50 PM 73.4 °F - 28.4 °F 19% 29.98 in 6.2 mi Variable 3.5 mph - N/A   Scattered Clouds
1:50 PM 77.0 °F - 24.8 °F 14% 29.98 in 6.2 mi SW 15.0 mph - N/A   Mostly Cloudy
2:50 PM 75.2 °F - 24.8 °F 15% 29.95 in 6.2 mi SW 13.8 mph - N/A   Mostly Cloudy
3:00 PM 75 °F - 24 °F 7% 29.89 in 12 mi SW 13.8 mph - -   Scattered Clouds
3:50 PM 73.4 °F - 26.6 °F 18% 29.95 in 6.2 mi SSE 13.8 mph - N/A   Mostly Cloudy
4:50 PM 75.2 °F - 26.6 °F 17% 29.95 in 6.2 mi South 9.2 mph - N/A   Mostly Cloudy
5:50 PM 69.8 °F - 26.6 °F 20% 29.95 in 6.2 mi South 5.8 mph - N/A   Partly Cloudy
6:50 PM 62.6 °F - 26.6 °F 26% 29.98 in 6.2 mi SW 3.5 mph - N/A   Partly Cloudy
7:50 PM 59.0 °F - 28.4 °F 31% 29.98 in 6.2 mi WNW 4.6 mph - N/A   Partly Cloudy
8:50 PM 55.4 °F - 30.2 °F 38% 29.98 in - Variable 1.2 mph - N/A   Clear
9:00 PM 55 °F - 29 °F 24% 29.94 in 12 mi WNW 1.2 mph - -  
9:50 PM 50.0 °F - 32.0 °F 50% 30.01 in - Calm Calm - N/A   Clear
10:50 PM 50.0 °F - 28.4 °F 43% 29.98 in - Calm Calm - N/A   Clear
11:50 PM 51.8 °F - 28.4 °F 41% 29.98 in - Variable 1.2 mph - N/A   Clear